Regional Weather Roundup
Issued by NWS

Home | Current Version | Previous Version | Graphics & Text | Print | Product List | Glossary Off
Versions: 1 2 3 4 5 6 7 8 9 10 11 12 13 14 15 16 17 18 19 20 21 22 23 24 25 26 27 28 29 30 31 32 33 34 35 36 37 38 39 40 41 42 43 44 45 46 47 48 49 50

000
ASUS45 KBOU 301407
RWRCO

WEATHER ROUNDUP FOR COLORADO
NATIONAL WEATHER SERVICE DENVER/BOULDER CO
800 AM MDT SUN AUG 30 2015

NOTE: "FAIR" INDICATES FEW OR NO CLOUDS BELOW 12000 FEET WITH NO
SIGNIFICANT WEATHER AND/OR OBSTRUCTIONS TO VISIBILITY.

COZ001>005-013-030-031-301500-
...NORTHWEST COLORADO...

CITY           SKY/WX    TMP DP  RH WIND       PRES   REMARKS
CRAIG          SUNNY     53  46  77 CALM      30.21R
HAYDEN         NOT AVBL
MEEKER         CLOUDY    56  41  57 CALM      30.23R
MOUNT WERNER   NOT AVBL
STEAMBOAT SPGS MOSUNNY   50  39  66 CALM      30.26S
WALDEN         MOSUNNY   45  36  70 E3        30.34S
$$

COZ006>008-011-301500-
...WEST CENTRAL VALLEYS...

CITY           SKY/WX    TMP DP  RH WIND       PRES   REMARKS
GRAND JUNCTION SUNNY     62  42  47 E7        30.12R
MONTROSE       SUNNY     63  43  48 SE7       30.22R
EAGLE          MOSUNNY   48  39  71 CALM      30.33R
RIFLE          SUNNY     57  44  62 W3        30.20R
DELTA          SUNNY     64  44  48 NE3       30.19S
NUCLA          MOSUNNY   64  39  39 CALM      30.26R
$$

COZ017>023-064>068-301500-
...SOUTHWEST COLORADO...

CITY           SKY/WX    TMP DP  RH WIND       PRES   REMARKS
DURANGO        MOSUNNY   56  46  69 E3        30.32S
CORTEZ         PTSUNNY   60  50  69 CALM      30.25R
PAGOSA SPRINGS MOSUNNY   56  45  67 CALM      30.41R
TELLURIDE      SUNNY     59  42  52 CALM      30.48S
WOLF CREEK PAS SUNNY     46  37  71 SW9       30.70R
$$

COZ009-010-012-014-032>034-037-058>063-301500-
...CENTRAL COLORADO...

CITY           SKY/WX    TMP DP  RH WIND       PRES   REMARKS
ASPEN          SUNNY     58  38  47 S3        30.35R
BUENA VISTA    SUNNY     53  39  58 CALM      30.40S
COPPER MTN     SUNNY     54  27  35 SW8G18    30.66S
BERTHOUD PASS  FAIR      43  32  65 NW17G31   30.68R
COTTONWOOD PAS SUNNY     59  37  44 CALM      30.51S
GUNNISON       SUNNY     45  37  76 E5        30.44R
KREMMLING      SUNNY     43  37  81 CALM      30.37R
LEADVILLE      SUNNY     47  37  68 CALM      30.51R
MONARCH PASS   SUNNY     45  36  70 SW10      30.76S
SALIDA         SUNNY     58  40  52 NW10      30.44S
SUNLIGHT       SUNNY     54  36  50 CALM      30.57R
WILKERSON PASS MOSUNNY   48  36  61 SW8       30.62S
$$

COZ069>075-301500-
...SAN LUIS VALLEY/SANGRE DE CRISTO MOUNTAINS...

CITY           SKY/WX    TMP DP  RH WIND       PRES   REMARKS
ALAMOSA        MOSUNNY   56  44  64 S3        30.39R
LA VETA PASS   SUNNY     48  41  76 SW9       30.52S
SAGUACHE       MOSUNNY   54  43  66 NW8       30.42S
$$

COZ035-036-038>040-301500-
...NORTHERN COLORADO FRONT RANGE...

CITY           SKY/WX    TMP DP  RH WIND       PRES   REMARKS
DENVER INTL AP PTSUNNY   70  43  37 SW3       30.12R
DMNS CITY PARK   N/A     69  46  43 SW5       30.12S
AURORA         NOT AVBL
FRONT RANGE AP MOSUNNY   68  41  37 CALM      30.14R
ERIE MUNI ARPT SUNNY     62  48  60 CALM      30.10F
BOULDER MUN AP SUNNY     63  45  51 CALM      30.11R
CENTENNIAL     PTSUNNY   72  43  35 SW14      30.15S
BROOMFIELD     MOSUNNY   68  46  45 CALM      30.14R
FORT COLLINS   MOSUNNY   63  46  55 N5        30.10S
LONGMONT       MOSUNNY   63  50  63 CALM      30.11S
$$

COZ041-046-047-076>085-087-088-301500-
...PIKES PEAK/PALMER DIVIDE AND SOUTHERN FOOTHILLS...

CITY           SKY/WX    TMP DP  RH WIND       PRES   REMARKS
COLO. SPRINGS  MOSUNNY   64  47  53 W3        30.21R
A. F. ACADEMY  MOSUNNY   60  43  52 VRB7      30.22S
ELLICOTT       SUNNY    N/A N/A N/A CALM      30.19S
FALCON         PTSUNNY   67  49  51 MISG      30.26R
FORT CARSON    MOSUNNY   63  45  51 NW7       30.18R
LIMON          SUNNY     58  47  66 CALM      30.17R
MONUMENT HILL  SUNNY     68  41  37 W3        30.26R
TRINIDAD       SUNNY     69  50  50 SW6       30.20R
$$

COZ042>045-048>051-090-091-301500-
...NORTHEAST COLORADO...

CITY           SKY/WX    TMP DP  RH WIND       PRES   REMARKS
GREELEY ARPT   MOSUNNY   55  46  71 NW3       30.09S
AKRON          SUNNY     70  47  43 S17       30.07S
BURLINGTON     SUNNY     66  47  50 S12       30.11S
WRAY           SUNNY     71  46  40 S10G16    30.05F
STERLING       SUNNY     64  48  55 S5        30.03S
HOLYOKE        SUNNY     68  50  52 S9        30.04S
FORT MORGAN    SUNNY     66  44  45 SW8       30.07S
$$

COZ086-089-092>099-301500-
...SOUTHEAST COLORADO...

CITY           SKY/WX    TMP DP  RH WIND       PRES   REMARKS
PUEBLO         SUNNY     65  46  50 CALM      30.13R
LA JUNTA       SUNNY     66  48  52 CALM      30.10S
LAMAR          NOT AVBL
SPRINGFIELD    NOT AVBL
$$



USA.gov is the U.S. government's official web portal to all federal, state and local government web resources and services.